Location: �chenoz-la-M�line
(47.6009°N, 6.1354°E)
Time: 03:33:26
(UTC+00:00)

FALCON 9 DEB - Pass Details

Date: 27 January 2021
Orbit: 424 x 437 km, 53.0° (Epoch: 27 February)

Event Time Altitude Azimuth Distance (km) Brightness Sun altitude
Exits shadow 06:00:55 17° 305° (NW) 1,166 4.7 -11.4°
Maximum altitude 06:02:58 31° 359° (N) 771 4.2 -11.1°
Drops below altitude 10° 06:06:05 10° 65° (ENE) 1,523 6.6 -10.6°
Sets 06:08:20 0° 76° (ENE) 2,392 8.0 -10.2°
